Stations météo

réclame
Mon MeteoGroup
Pertusato, France (7770): Température de l'air & dewpoint: 11.01.2019 01:00:00 - 17.01.2019 01:00:00 (CET)Pertusato, France (7770): Vitesse du vent & gusts: 11.01.2019 01:00:00 - 17.01.2019 01:00:00 (CET)Pertusato, France (7770): Direction du vent: 11.01.2019 01:00:00 - 17.01.2019 01:00:00 (CET)Pertusato, France (7770): reduced air pressure: 11.01.2019 01:00:00 - 17.01.2019 01:00:00 (CET)Pertusato, France (7770): visibility: 11.01.2019 01:00:00 - 17.01.2019 01:00:00 (CET)Pertusato, France (7770): Quantités de précipitations: 11.01.2019 01:00:00 - 17.01.2019 01:00:00 (CET)
Date & Time tt [°C] td [°C] ff [km/h] ff [knt] fx [km/h] fx [knt] dd ppp [hPa] vv [km] rr [mm]
17.01.2019 01:00:00 12,0 8,3 7 4 29 16 WNW 1019,1 - 0,0
17.01.2019 00:00:00 12,3 8,2 10 5 31 17 WNW 1019,6 - 0,0
16.01.2019 23:00:00 12,2 8,3 9 5 28 15 WNW 1020,0 - 0,0
16.01.2019 22:00:00 12,5 8,4 9 5 34 18 WNW 1019,8 - 0,0
16.01.2019 21:00:00 12,6 7,9 6 3 20 11 S 1019,8 - 0,0
16.01.2019 20:00:00 12,5 7,6 5 3 22 12 SE 1019,9 - 0,0
16.01.2019 19:00:00 12,5 7,2 7 4 20 11 S 1019,8 15 0,0
16.01.2019 18:00:00 12,6 7,3 7 4 26 14 WNW 1019,8 - 0,0
16.01.2019 17:00:00 12,6 6,2 14 7 29 15 W 1019,7 - 0,0
16.01.2019 16:00:00 12,8 6,2 14 7 29 16 W 1019,9 - 0,0
16.01.2019 15:00:00 13,2 5,6 9 5 36 19 WNW 1019,9 - 0,0
16.01.2019 14:00:00 13,7 5,1 10 6 38 21 WNW 1020,0 - 0,0
16.01.2019 13:00:00 13,8 4,6 10 6 32 17 W 1020,7 18 0,0
16.01.2019 12:00:00 14,0 5,1 6 4 19 10 SSW 1021,7 - 0,0
16.01.2019 11:00:00 12,8 4,5 10 5 19 10 S 1022,5 - 0,0
16.01.2019 10:00:00 12,3 6,3 10 6 23 12 S 1022,4 18 0,0
16.01.2019 09:00:00 10,9 6,4 8 5 29 15 SSW 1022,0 - 0,0
16.01.2019 08:00:00 10,3 5,3 8 4 35 19 WNW 1021,7 - 0,0
16.01.2019 07:00:00 10,5 6,1 16 8 35 19 W 1021,6 - 0,0
16.01.2019 06:00:00 9,1 6,2 14 7 19 10 WNW 1021,6 - 0,0
16.01.2019 05:00:00 10,2 7,4 13 7 18 10 W 1021,5 - 0,0
16.01.2019 04:00:00 9,3 6,6 10 6 13 7 W 1021,8 - 0,0
16.01.2019 03:00:00 8,3 4,1 5 3 10 5 NNE 1022,1 - 0,0
16.01.2019 02:00:00 8,1 4,9 9 5 14 8 NE 1022,1 - 0,0
16.01.2019 01:00:00 7,6 4,2 9 5 12 7 NE 1022,2 - 0,0
16.01.2019 00:00:00 7,3 4,4 11 6 13 7 NE 1022,3 - 0,0
15.01.2019 23:00:00 7,6 4,2 11 6 21 11 NE 1022,2 - 0,0
15.01.2019 22:00:00 8,4 4,8 14 7 19 10 ESE 1021,6 - 0,0
15.01.2019 21:00:00 8,7 4,9 11 6 22 12 ESE 1021,4 - 0,0
15.01.2019 20:00:00 9,4 5,0 14 8 19 10 E 1020,9 - 0,0
15.01.2019 19:00:00 9,2 4,2 9 5 19 11 ESE 1020,7 12 0,0
15.01.2019 18:00:00 9,9 4,3 16 9 21 11 E 1020,1 - 0,0
15.01.2019 17:00:00 11,3 4,5 15 8 19 10 E 1019,8 - 0,0
15.01.2019 16:00:00 13,8 4,1 13 7 18 10 E 1019,3 12 0,0
15.01.2019 15:00:00 15,2 4,0 8 4 16 9 E 1019,1 - 0,0
15.01.2019 14:00:00 15,2 2,7 8 5 18 10 ESE 1018,8 - 0,0
15.01.2019 13:00:00 15,2 3,0 9 5 19 11 SE 1019,1 12 0,0
15.01.2019 12:00:00 14,8 4,5 10 5 21 11 ESE 1019,6 - 0,0
15.01.2019 11:00:00 14,4 5,5 10 5 21 11 ESE 1019,6 - 0,0
15.01.2019 10:00:00 13,2 6,5 10 5 21 11 ENE 1018,5 12 0,0
15.01.2019 09:00:00 10,5 6,1 8 4 14 7 NNE 1017,5 - 0,0
15.01.2019 08:00:00 9,9 7,1 7 4 25 14 NW 1016,9 - 0,0
15.01.2019 07:00:00 11,4 8,1 8 4 31 17 N 1015,8 - 0,0
15.01.2019 06:00:00 11,5 8,4 11 6 31 17 WNW 1014,9 - 0,0
15.01.2019 05:00:00 11,6 8,4 9 5 25 13 N 1014,3 - 0,0
15.01.2019 04:00:00 11,5 9,1 8 4 30 16 N 1013,7 - 0,0
15.01.2019 03:00:00 11,8 9,5 9 5 32 17 E 1013,6 - 0,0
15.01.2019 02:00:00 12,2 9,2 9 5 28 15 NW 1012,9 - 0,0
15.01.2019 01:00:00 12,4 10,1 9 5 29 16 WNW 1012,4 - 0,0
15.01.2019 00:00:00 11,9 8,7 10 5 29 16 WNW 1011,5 - 0,0
14.01.2019 23:00:00 11,9 8,7 10 5 36 19 W 1010,8 - 0,0
14.01.2019 22:00:00 12,4 9,0 18 10 37 20 WNW 1010,1 - 0,0
14.01.2019 21:00:00 12,3 8,2 13 7 39 21 WNW 1009,8 - 0,0
14.01.2019 20:00:00 12,4 8,3 22 12 40 21 WNW 1008,8 - 0,0
14.01.2019 19:00:00 13,0 7,0 23 13 42 23 WNW 1008,2 20 0,0
14.01.2019 18:00:00 12,9 8,2 24 13 48 26 WNW 1007,8 - 0,0
14.01.2019 17:00:00 13,8 9,2 27 15 50 27 WNW 1007,0 - 0,0
14.01.2019 16:00:00 14,3 9,1 34 18 56 31 W 1006,5 - 0,0
14.01.2019 15:00:00 14,7 9,1 35 19 65 35 WNW 1005,9 - 0,0
14.01.2019 14:00:00 14,6 8,3 43 23 74 40 W 1005,2 - 0,0
14.01.2019 13:00:00 14,4 8,6 48 26 82 45 W 1004,8 - 0,0
14.01.2019 12:00:00 14,3 8,0 54 29 100 54 WNW 1004,0 - 0,0
14.01.2019 11:00:00 14,0 8,4 56 31 96 52 W 1004,1 - 0,0
14.01.2019 10:00:00 13,3 7,9 35 19 74 40 WNW 1004,1 13 0,0
14.01.2019 09:00:00 13,1 7,5 40 21 91 49 WNW 1003,5 - 0,0
14.01.2019 08:00:00 12,9 8,4 59 32 102 55 WNW 1001,4 - 0,0
14.01.2019 07:00:00 12,8 9,2 71 38 106 58 W 1000,3 15 0,0
14.01.2019 06:00:00 12,6 8,7 57 31 93 50 WNW 1001,7 - 0,0
14.01.2019 05:00:00 12,2 8,8 59 32 90 49 W 1002,4 - 0,0
14.01.2019 04:00:00 12,1 9,1 61 33 88 48 W 1003,4 15 0,0
14.01.2019 03:00:00 11,8 9,0 53 28 76 41 W 1004,8 - 0,0
14.01.2019 02:00:00 11,7 9,3 51 28 76 41 W 1005,4 - 0,0
14.01.2019 01:00:00 11,9 9,1 45 25 84 45 W 1006,6 - 0,0
14.01.2019 00:00:00 12,9 9,7 38 21 90 49 W 1005,6 - 0,0
13.01.2019 23:00:00 12,8 9,1 37 20 82 45 W 1007,0 - 0,0
13.01.2019 22:00:00 12,6 8,7 44 24 82 44 W 1008,5 - 0,0
13.01.2019 21:00:00 12,4 7,9 31 17 74 40 W 1008,6 - 0,0
13.01.2019 20:00:00 12,0 7,5 27 14 74 40 W 1009,8 - 0,0
13.01.2019 19:00:00 12,0 7,5 24 13 71 38 WNW 1010,4 15 0,0
13.01.2019 18:00:00 12,4 8,1 30 16 67 36 W 1010,9 - 0,0
13.01.2019 17:00:00 12,1 7,0 34 18 74 40 W 1011,1 - 0,0
13.01.2019 16:00:00 12,1 7,2 45 25 73 39 W 1010,7 15 0,0
13.01.2019 15:00:00 12,3 6,3 35 19 65 35 W 1011,2 - 0,0
13.01.2019 14:00:00 12,4 6,0 32 17 57 31 W 1011,7 - 0,0
13.01.2019 13:00:00 12,5 6,5 30 16 48 26 W 1012,7 15 0,0
13.01.2019 12:00:00 12,6 6,8 26 14 42 23 W 1013,5 - 0,0
13.01.2019 11:00:00 12,6 6,4 25 13 40 22 W 1013,3 - 0,0
13.01.2019 10:00:00 12,1 7,0 19 10 31 17 W 1013,2 10 0,0
13.01.2019 09:00:00 10,8 6,5 20 11 61 33 WNW 1012,7 - 0,0
13.01.2019 08:00:00 11,2 6,9 44 24 92 50 W 1011,5 - 0,0
13.01.2019 07:00:00 10,9 7,0 64 35 105 57 W 1009,9 10 0,0
13.01.2019 06:00:00 11,3 6,8 45 25 109 59 W 1010,0 - 0,0
13.01.2019 05:00:00 10,5 6,4 51 27 113 61 W 1010,0 - 0,0
13.01.2019 04:00:00 10,8 6,0 41 22 95 51 W 1011,4 - 0,0
13.01.2019 03:00:00 10,6 5,4 47 26 98 53 W 1013,6 - 0,0
13.01.2019 02:00:00 11,0 6,3 43 23 94 51 W 1013,5 - 0,0
13.01.2019 01:00:00 11,4 6,3 39 21 92 50 W 1014,7 - 0,0
13.01.2019 00:00:00 10,5 7,4 25 14 66 36 W 1015,8 - 0,0
12.01.2019 23:00:00 10,5 5,3 22 12 68 37 WNW 1017,1 - 0,0
12.01.2019 22:00:00 10,3 4,6 30 16 68 37 W 1018,7 - 0,0
12.01.2019 21:00:00 10,3 4,9 36 19 64 35 W 1019,2 - 0,0
12.01.2019 20:00:00 10,4 5,0 19 11 59 32 WNW 1019,3 - 0,0
12.01.2019 19:00:00 10,6 5,6 29 16 54 29 W 1019,2 - 0,0
12.01.2019 18:00:00 10,4 3,7 31 17 45 24 W 1019,5 - 0,0
12.01.2019 17:00:00 10,4 3,4 26 14 49 26 W 1019,3 - 0,0
12.01.2019 16:00:00 10,8 2,6 32 18 50 27 W 1019,3 20 0,0
12.01.2019 15:00:00 10,7 2,5 37 20 55 30 W 1019,2 - 0,0
12.01.2019 14:00:00 10,7 2,0 30 16 53 29 W 1019,6 - 0,0
12.01.2019 13:00:00 10,6 0,6 19 10 43 23 W 1020,2 - 0,0
12.01.2019 12:00:00 10,8 -0,4 24 13 39 21 W 1020,8 - 0,0
12.01.2019 11:00:00 10,3 0,3 12 6 24 13 W 1021,5 - 0,0
12.01.2019 10:00:00 9,6 -0,9 8 5 13 7 W 1021,4 20 0,0
12.01.2019 09:00:00 8,7 -1,7 2 1 9 5 WSW 1021,1 - 0,0
12.01.2019 08:00:00 4,8 -5,3 9 5 14 8 NE 1020,7 - 0,0
12.01.2019 07:00:00 3,8 -2,0 10 6 13 7 NE 1020,5 20 0,0
12.01.2019 06:00:00 4,7 0,5 8 4 13 7 NNW 1020,3 - 0,0
12.01.2019 05:00:00 4,9 -0,3 7 4 13 7 N 1020,4 - 0,0
12.01.2019 04:00:00 5,7 0,6 9 5 16 9 WNW 1020,5 - 0,0
12.01.2019 03:00:00 6,1 1,4 10 5 16 8 WNW 1020,8 - 0,0
12.01.2019 02:00:00 4,9 -1,3 6 4 16 9 NW 1020,8 - 0,0
12.01.2019 01:00:00 5,0 0,2 11 6 18 10 NNW 1020,7 - 0,0
12.01.2019 00:00:00 4,9 -0,9 10 5 15 8 NW 1020,9 - 0,0
11.01.2019 23:00:00 4,3 -2,1 11 6 18 10 N 1021,1 - 0,0
11.01.2019 22:00:00 4,1 -0,7 9 5 16 8 N 1020,8 - 0,0
11.01.2019 21:00:00 4,9 -0,3 8 4 18 10 NNW 1020,5 - 0,0
11.01.2019 20:00:00 4,6 0,5 9 5 27 15 NNW 1020,4 - 0,0
11.01.2019 19:00:00 6,0 1,3 20 11 45 25 WNW 1020,0 15 0,0
11.01.2019 18:00:00 7,6 0,1 21 11 34 18 WNW 1019,4 - 0,0
11.01.2019 17:00:00 6,8 -1,4 10 5 29 16 NNW 1019,1 - 0,0
11.01.2019 16:00:00 8,2 -2,5 16 9 37 20 NE 1018,4 - 0,0
11.01.2019 15:00:00 10,3 -2,7 21 11 39 21 NE 1017,8 - 0,0
11.01.2019 14:00:00 10,7 -1,4 23 13 40 22 NE 1017,9 - 0,0
11.01.2019 13:00:00 10,8 -1,3 23 13 39 21 NE 1018,0 20 0,0
11.01.2019 12:00:00 10,8 -1,3 20 11 39 21 NE 1018,6 - 0,0
11.01.2019 11:00:00 10,2 -1,8 21 12 39 21 NE 1018,9 - 0,0
11.01.2019 10:00:00 8,8 -1,3 14 8 26 14 NNE 1018,4 - 0,0
11.01.2019 09:00:00 5,7 -1,9 16 9 24 13 NE 1017,9 - 0,0
11.01.2019 08:00:00 4,5 -2,2 17 9 24 13 NNE 1017,3 - 0,0
11.01.2019 07:00:00 4,3 -3,0 13 7 22 12 NE 1016,9 20 0,0
11.01.2019 06:00:00 4,7 -3,3 16 9 23 13 NNE 1016,4 - 0,0
11.01.2019 05:00:00 5,0 -3,6 16 9 22 12 NNE 1016,2 - 0,0
11.01.2019 04:00:00 4,7 -4,9 13 7 19 10 NNE 1016,2 - 0,0
11.01.2019 03:00:00 4,8 -5,3 15 8 20 11 NE 1016,4 - 0,0
11.01.2019 02:00:00 4,6 -5,2 13 7 17 9 N 1016,2 - 0,0
11.01.2019 01:00:00 5,1 -4,5 15 8 22 12 NE 1015,7 - 0,0

tt = Température de l'air
td = dewpoint
ff = Vitesse du vent
fx = gusts
dd = Direction du vent
ppp = reduced air pressure
vv = visibility
rr = Quantités de précipitations

stations d'obs. à proximité